Temp
2 2 2 2 3 3 3 4 4 5 5 6 7 7 8 8 9 10 11 11 11 11 11 12 12 12 12 13 13 13 13 14 15 15 14 13 13 13 13 13 12 12 11
1 1 1 0 -0 0 -0 0 1 3 3 4 5 5 6 7 8 8 10 10 10 11 11 11 12 12 12 12 12 13 13 13 13 14 14 14 13 13 13 13 12 12 12
1 1 0 -0 0 0 0 0 0 0 1 2 3 3 4 5 6 7 7 9 10 10 10 10 10 11 11 12 12 12 13 13 13 13 14 14 13 13 13 13 12 12 12
-2 -2 -2 -2 -2 -2 -2 -2 -2 -1 -0 -0 1 2 2 3 4 5 6 6 8 9 10 10 10 10 10 11 12 12 12 12 13 13 13 13 13 13 13 12 12 13 12
-4 -3 -3 -3 -4 -4 -4 -4 -4 -4 -3 -3 -3 -1 0 2 2 3 4 5 5 6 8 9 9 9 9 9 10 11 12 12 12 12 13 13 13 13 13 12 12 12 12
-3 -3 -3 -3 -3 -3 -3 -4 -4 -4 -5 -5 -4 -3 -1 0 1 2 2 2 3 4 4 6 7 8 9 9 9 9 11 11 12 12 12 12 13 13 13 13 12 12 12
-4 -4 -4 -3 -3 -3 -3 -4 -4 -4 -4 -5 -4 -4 -3 -2 -1 -1 -0 1 1 1 2 2 4 5 7 8 9 9 9 11 11 12 12 12 12 13 13 13 12 12 12
-6 -6 -6 -6 -6 -6 -5 -5 -5 -5 -5 -5 -7 -5 -5 -3 -3 -2 -2 -1 -1 -0 0 0 0 2 3 4 6 8 9 9 11 11 11 12 12 12 13 13 12 12 12
-7 -7 -8 -8 -8 -8 -7 -7 -7 -7 -7 -5 -7 -9 -8 -8 -6 -4 -3 -2 -1 -1 -0 -0 0 0 1 1 2 4 7 8 9 11 12 11 12 12 12 13 13 12 12
-7 -8 -9 -9 -9 -9 -9 -8 -8 -8 -9 -9 -7 -8 -9 -9 -9 -9 -5 -4 -3 -2 -2 -1 -1 0 1 1 1 1 2 5 7 8 11 11 11 11 12 12 12 12 12
-7 -8 -8 -8 -9 -9 -9 -9 -9 -9 -9 -10 -10 -9 -9 -10 -10 -10 -10 -8 -4 -5 -4 -3 -2 -2 -0 -0 1 2 2 2 5 7 9 11 11 11 11 12 12 12 12
-7 -7 -8 -8 -9 -9 -9 -9 -10 -10 -10 -10 -10 -10 -10 -10 -10 -10 -10 -10 -10 -5 -6 -4 -4 -3 -2 -1 -1 -1 -1 2 3 4 7 8 11 12 11 11 12 12 12
-7 -8 -8 -8 -8 -9 -9 -10 -10 -10 -10 -10 -11 -10 -10 -10 -10 -10 -10 -10 -10 -10 -9 -6 -6 -6 -4 -4 -3 -5 -4 -3 2 3 4 7 8 10 11 10 11 12 12
-8 -8 -8 -9 -9 -9 -10 -10 -10 -10 -10 -10 -10 -11 -10 -10 -10 -10 -11 -10 -10 -10 -10 -9 -7 -7 -6 -6 -6 -6 -5 -4 -2 0 3 5 7 9 10 11 11 11 11
-9 -9 -9 -9 -9 -9 -10 -10 -10 -10 -10 -10 -10 -10 -10 -9 -9 -10 -11 -11 -11 -10 -10 -10 -10 -8 -8 -6 -5 -5 -5 -4 -3 -1 1 3 3 7 10 10 10 11 11
-9 -9 -9 -9 -9 -9 -9 -10 -10 -10 -11 -10 -10 -10 -10 -9 -10 -10 -10 -11 -11 -11 -11 -10 -10 -9 -9 -9 -7 -7 -5 -4 -3 -2 -0 2 3 3 7 9 10 11 10
-9 -9 -10 -10 -9 -9 -9 -10 -10 -10 -10 -10 -10 -10 -10 -9 -10 -10 -10 -10 -11 -11 -11 -11 -11 -10 -9 -10 -9 -8 -7 -5 -4 -3 -1 0 3 4 4 6 8 10 11
-10 -11 -10 -10 -10 -10 -10 -10 -10 -10 -11 -10 -9 -9 -9 -9 -9 -9 -10 -10 -10 -11 -11 -11 -11 -11 -10 -10 -10 -9 -8 -7 -5 -3 -2 -1 1 2 4 3 5 8 11
-11 -12 -12 -11 -11 -11 -11 -10 -11 -10 -10 -9 -9 -9 -8 -8 -8 -8 -9 -9 -10 -11 -11 -11 -11 -11 -10 -10 -10 -9 -8 -8 -6 -4 -4 -4 -2 1 4 3 3 8 8
-12 -12 -12 -12 -12 -11 -11 -11 -11 -10 -9 -9 -8 -8 -8 -8 -8 -8 -8 -9 -10 -11 -11 -11 -11 -11 -11 -11 -10 -10 -9 -8 -7 -5 -5 -4 -3 -0 3 3 2 4 8
-12 -12 -12 -12 -12 -12 -11 -11 -11 -10 -9 -9 -8 -8 -8 -8 -7 -8 -9 -9 -9 -10 -10 -11 -11 -11 -11 -11 -10 -10 -9 -8 -7 -5 -5 -4 -3 -2 -2 2 3 3 6
-12 -12 -12 -12 -12 -12 -11 -11 -10 -9 -9 -8 -9 -8 -8 -8 -7 -7 -8 -8 -9 -9 -9 -9 -10 -10 -10 -10 -10 -9 -9 -9 -7 -6 -6 -5 -4 -4 -2 1 3 2 3
-12 -12 -12 -12 -12 -12 -11 -11 -10 -10 -9 -9 -9 -9 -8 -8 -8 -7 -6 -7 -8 -8 -8 -8 -8 -9 -9 -9 -8 -9 -8 -8 -8 -7 -7 -6 -5 -5 -3 -2 2 2 3
-12 -12 -12 -12 -12 -12 -11 -11 -10 -9 -9 -9 -9 -9 -8 -8 -8 -8 -7 -6 -6 -7 -7 -8 -8 -8 -9 -9 -9 -9 -9 -9 -8 -7 -8 -7 -6 -5 -4 -2 2 2 3
-12 -12 -12 -12 -12 -11 -11 -11 -10 -10 -9 -9 -9 -9 -9 -9 -9 -8 -7 -7 -7 -6 -6 -7 -7 -8 -9 -9 -9 -9 -9 -9 -9 -8 -8 -7 -6 -5 -4 -3 0 3 3
-13 -12 -12 -12 -12 -11 -11 -11 -10 -10 -10 -9 -9 -9 -9 -9 -9 -8 -8 -8 -8 -7 -7 -7 -7 -7 -8 -8 -8 -8 -8 -8 -8 -8 -8 -7 -5 -4 -4 -2 -0 1 4
Height
1516 1514 1512 1511 1511 1510 1510 1509 1509 1507 1507 1508 1507 1508 1509 1510 1510 1510 1511 1513 1515 1518 1520 1524 1526 1529 1531 1533 1536 1538 1539 1541 1542 1543 1546 1549 1552 1555 1557 1560 1562 1566 1568
1514 1513 1511 1510 1508 1506 1506 1507 1505 1505 1505 1503 1502 1502 1503 1504 1504 1505 1506 1508 1511 1512 1514 1517 1520 1523 1527 1528 1530 1533 1535 1537 1539 1540 1541 1544 1547 1550 1554 1557 1559 1562 1565
1511 1509 1508 1507 1506 1505 1503 1502 1500 1499 1498 1497 1497 1497 1497 1498 1498 1500 1502 1502 1504 1506 1508 1510 1512 1515 1519 1522 1523 1526 1529 1531 1534 1535 1537 1539 1541 1545 1549 1552 1555 1557 1561
1508 1506 1506 1504 1504 1502 1501 1500 1498 1495 1493 1492 1491 1491 1492 1492 1494 1494 1494 1495 1496 1499 1501 1503 1506 1509 1510 1514 1517 1518 1521 1525 1527 1530 1532 1534 1536 1538 1542 1547 1549 1552 1556
1507 1505 1504 1502 1501 1499 1498 1496 1494 1492 1490 1489 1486 1486 1486 1489 1488 1488 1487 1490 1491 1492 1493 1494 1496 1498 1503 1504 1509 1511 1514 1518 1520 1523 1526 1528 1530 1532 1536 1540 1544 1546 1551
1505 1504 1502 1501 1500 1498 1497 1497 1493 1491 1488 1484 1481 1479 1480 1480 1481 1482 1482 1483 1486 1484 1484 1487 1488 1490 1492 1494 1497 1500 1503 1508 1512 1515 1518 1521 1524 1526 1529 1532 1537 1541 1544
1501 1500 1500 1498 1496 1495 1494 1492 1488 1485 1484 1481 1476 1475 1474 1477 1477 1479 1480 1479 1478 1479 1481 1481 1481 1480 1483 1486 1490 1492 1492 1497 1499 1505 1509 1513 1516 1519 1522 1525 1528 1533 1538
1499 1497 1496 1495 1494 1493 1492 1491 1489 1487 1486 1484 1481 1476 1471 1473 1472 1476 1477 1476 1474 1475 1477 1475 1476 1474 1475 1477 1481 1483 1485 1485 1490 1492 1499 1503 1506 1509 1513 1516 1520 1524 1529
1496 1495 1494 1493 1492 1490 1490 1489 1488 1486 1485 1485 1486 1486 1481 1476 1467 1467 1472 1471 1473 1471 1471 1471 1470 1471 1469 1471 1472 1474 1476 1476 1478 1484 1485 1492 1496 1500 1503 1507 1511 1516 1520
1494 1493 1491 1490 1488 1487 1487 1487 1484 1484 1483 1483 1483 1485 1486 1487 1482 1468 1467 1464 1464 1465 1466 1464 1464 1465 1464 1466 1466 1468 1468 1465 1468 1470 1473 1479 1485 1489 1493 1497 1501 1506 1511
1490 1489 1487 1485 1485 1485 1483 1482 1480 1481 1481 1482 1483 1482 1482 1483 1482 1479 1461 1462 1460 1458 1458 1457 1456 1455 1457 1459 1459 1460 1458 1457 1459 1460 1461 1468 1469 1475 1481 1486 1491 1495 1499
1486 1484 1482 1481 1481 1480 1478 1477 1478 1478 1478 1478 1479 1481 1483 1481 1476 1472 1466 1459 1457 1452 1452 1451 1450 1450 1450 1450 1451 1451 1449 1450 1449 1449 1451 1452 1457 1458 1467 1472 1479 1485 1488
1480 1478 1477 1476 1475 1474 1474 1474 1473 1472 1471 1472 1475 1476 1475 1472 1469 1467 1464 1456 1454 1451 1448 1445 1445 1446 1445 1442 1441 1441 1440 1439 1439 1439 1440 1442 1443 1449 1450 1461 1467 1473 1479
1474 1473 1472 1470 1470 1469 1469 1468 1466 1465 1466 1466 1467 1468 1466 1463 1461 1460 1459 1457 1448 1442 1441 1439 1441 1439 1437 1438 1436 1435 1431 1431 1430 1429 1430 1432 1432 1431 1439 1440 1453 1460 1466
1469 1468 1466 1465 1464 1464 1464 1462 1460 1460 1460 1461 1460 1458 1456 1454 1454 1455 1455 1456 1454 1443 1430 1434 1434 1432 1430 1429 1429 1427 1423 1423 1421 1420 1421 1423 1423 1419 1425 1430 1431 1439 1451
1464 1462 1461 1460 1459 1459 1458 1456 1455 1455 1454 1453 1451 1450 1449 1449 1449 1449 1448 1447 1447 1443 1427 1430 1426 1425 1422 1420 1419 1417 1416 1414 1413 1411 1410 1409 1410 1409 1409 1413 1419 1427 1435
1458 1456 1455 1455 1453 1453 1452 1450 1450 1449 1447 1445 1445 1443 1443 1443 1442 1440 1439 1438 1436 1436 1428 1416 1419 1418 1416 1413 1411 1410 1407 1404 1402 1400 1399 1399 1398 1399 1401 1404 1408 1414 1419
1454 1452 1451 1449 1448 1447 1447 1445 1443 1442 1440 1439 1438 1438 1436 1437 1434 1432 1430 1427 1426 1425 1423 1410 1411 1409 1408 1406 1403 1401 1399 1396 1393 1391 1389 1389 1388 1391 1394 1396 1399 1396 1405
1450 1448 1446 1444 1442 1442 1441 1439 1437 1435 1434 1433 1432 1431 1430 1429 1425 1423 1420 1417 1416 1414 1413 1406 1401 1401 1399 1398 1396 1393 1390 1387 1385 1383 1381 1380 1380 1379 1383 1382 1385 1380 1390
1446 1443 1440 1438 1437 1436 1434 1433 1431 1429 1428 1426 1425 1424 1422 1419 1416 1413 1409 1406 1405 1404 1402 1398 1395 1393 1391 1390 1389 1386 1381 1381 1377 1376 1375 1373 1371 1370 1370 1375 1379 1376 1380
1440 1437 1435 1434 1432 1430 1428 1426 1425 1423 1421 1419 1417 1416 1413 1410 1406 1403 1399 1396 1395 1395 1392 1389 1386 1385 1382 1383 1381 1380 1376 1373 1370 1369 1367 1366 1365 1365 1364 1368 1368 1366 1370
1434 1432 1431 1428 1425 1424 1422 1421 1420 1417 1416 1413 1411 1408 1405 1402 1398 1394 1392 1388 1385 1382 1380 1379 1376 1374 1372 1373 1373 1373 1371 1368 1365 1363 1361 1357 1357 1353 1351 1354 1358 1363 1361
1429 1428 1425 1422 1419 1417 1415 1414 1413 1411 1409 1406 1403 1400 1396 1393 1390 1385 1380 1378 1377 1375 1373 1369 1365 1363 1362 1364 1365 1363 1363 1362 1358 1357 1357 1350 1350 1347 1348 1346 1349 1354 1351
1425 1422 1418 1416 1413 1411 1408 1407 1406 1404 1401 1399 1396 1392 1388 1384 1381 1377 1372 1367 1364 1362 1361 1362 1360 1356 1354 1356 1357 1356 1355 1353 1350 1348 1350 1343 1342 1338 1336 1331 1336 1343 1348
1419 1415 1413 1411 1408 1406 1403 1402 1400 1397 1394 1391 1388 1385 1381 1376 1373 1369 1365 1360 1354 1350 1348 1348 1348 1347 1347 1348 1349 1347 1345 1346 1341 1340 1342 1340 1333 1331 1327 1322 1323 1327 1334
1413 1411 1409 1407 1404 1401 1398 1396 1395 1392 1388 1385 1381 1377 1373 1369 1365 1362 1358 1353 1347 1343 1339 1338 1337 1337 1337 1337 1339 1338 1338 1336 1336 1333 1333 1333 1329 1327 1322 1316 1319 1325 1325
Wind_Speed
15 15 15 16 15 14 14 14 15 14 15 13 14 16 19 21 24 26 27 29 30 30 33 31 28 25 19 19 22 24 22 29 25 25 24 24 23 19 18 16 14 15 19
15 16 16 17 18 20 19 18 16 15 16 17 16 16 17 20 23 26 29 30 30 32 31 34 35 31 28 19 23 26 27 29 27 27 28 26 26 24 22 20 20 17 18
15 16 17 18 18 19 20 20 20 20 19 18 19 19 19 20 22 23 25 29 32 33 34 33 32 38 35 32 21 27 29 30 31 29 28 31 29 28 27 24 23 20 21
15 16 17 17 19 19 20 21 22 23 23 24 24 22 22 22 21 22 23 25 28 32 34 34 34 33 36 38 36 25 31 33 34 34 34 32 33 31 31 29 27 23 21
13 14 15 17 19 19 20 22 23 24 25 26 28 28 27 24 23 23 22 23 23 24 28 34 36 35 33 32 36 37 32 32 36 36 37 37 35 34 34 33 32 28 24
12 14 15 16 16 18 19 20 22 22 25 28 31 30 31 25 13 15 17 16 17 21 21 25 31 35 38 35 36 37 38 35 34 39 39 40 39 37 38 37 36 33 28
16 16 16 15 16 17 17 20 22 25 26 29 31 35 30 14 15 14 12 14 16 17 17 17 23 29 32 36 35 37 39 43 37 40 42 42 43 41 40 41 40 38 33
15 15 16 16 16 16 15 15 17 20 21 22 27 30 18 20 7 10 12 12 17 20 20 22 21 27 28 33 33 36 38 41 43 36 43 46 46 46 44 43 44 42 39
13 13 13 14 15 17 17 16 16 16 18 18 20 15 11 9 38 24 29 25 21 24 24 29 29 26 28 29 29 32 36 43 42 44 38 46 50 49 48 47 46 46 44
13 11 11 14 16 16 16 17 16 17 18 21 21 17 15 20 15 24 36 38 33 29 28 30 32 30 31 31 30 29 32 36 37 38 48 46 48 53 51 49 49 49 48
12 12 14 13 14 15 16 18 19 19 19 19 20 23 24 25 25 28 33 32 37 34 34 33 34 34 31 28 38 34 34 38 36 46 36 48 43 54 54 52 50 51 51
14 14 15 16 17 17 18 19 20 20 21 21 22 24 27 27 26 24 30 31 32 43 42 37 36 34 30 26 23 27 31 37 42 39 44 35 44 37 55 56 53 51 54
16 16 17 17 17 18 19 21 21 21 21 23 24 26 25 27 27 28 30 36 35 36 41 42 35 34 30 23 22 24 27 32 41 43 32 43 35 41 42 57 57 55 52
17 18 18 19 19 21 23 23 22 22 23 25 27 27 28 28 28 30 30 32 38 42 36 36 40 38 30 20 22 26 31 32 36 35 36 32 40 40 51 42 58 60 56
18 19 20 21 21 22 22 22 23 24 25 27 28 27 27 27 28 29 31 32 32 39 45 35 34 37 38 36 31 34 37 37 37 36 35 42 32 38 55 57 44 62 61
18 20 21 21 22 21 22 22 23 25 26 26 26 26 27 27 29 30 31 32 33 37 47 37 39 43 41 41 40 35 35 37 37 38 32 40 43 32 45 45 49 60 65
19 20 21 21 21 21 22 23 24 25 25 25 24 26 27 27 30 32 33 35 36 36 41 49 42 42 44 41 42 39 36 34 34 34 31 31 43 42 33 39 36 52 58
19 21 22 21 21 21 22 23 24 23 24 25 25 26 28 30 33 33 34 36 37 38 38 49 44 43 43 41 38 34 36 35 32 30 28 27 32 38 42 35 37 40 65
20 21 21 22 22 22 22 22 22 22 22 23 24 27 29 31 37 41 41 41 39 38 37 45 44 39 42 38 36 38 36 32 27 24 22 22 26 34 45 30 31 43 50
21 22 21 22 22 21 21 22 21 21 21 25 27 31 34 36 39 38 42 43 42 39 38 42 40 40 39 38 33 35 34 31 26 19 25 26 26 28 34 46 35 32 50
21 21 21 22 21 21 21 22 21 24 28 29 31 30 33 33 34 36 39 40 38 39 37 38 39 39 38 33 32 30 33 32 26 22 24 23 13 18 28 43 41 23 39
19 19 18 18 20 21 21 21 22 25 27 31 29 31 30 31 32 31 35 40 45 45 45 43 42 41 40 36 33 30 31 31 26 17 16 23 26 28 32 34 44 38 24
16 17 17 18 20 20 19 20 22 24 26 29 29 29 29 28 28 32 32 28 33 36 41 44 46 47 46 42 39 38 38 34 37 35 30 32 30 35 29 29 42 45 28
16 17 18 19 19 17 17 20 21 24 27 25 26 27 27 28 28 28 31 33 34 35 35 36 40 42 43 39 35 34 33 33 33 35 27 33 35 38 34 28 34 45 41
16 17 18 19 17 17 15 19 20 23 24 25 23 24 25 29 28 27 29 31 37 44 39 39 38 37 37 33 29 30 34 35 37 33 30 30 36 36 31 28 24 40 44
17 17 20 16 15 17 16 18 20 23 25 26 26 24 28 28 26 26 28 32 33 32 39 38 36 33 33 35 32 32 33 34 33 35 32 21 17 22 11 7 12 25 41
Wind_Direction
350 353 350 346 342 342 336 328 320 313 308 297 285 279 272 266 260 255 250 246 244 245 237 235 238 236 237 241 244 246 243 229 224 226 225 225 225 222 231 227 224 213 209
344 348 348 346 344 344 344 340 332 322 316 309 301 291 280 273 270 265 259 256 251 248 248 242 238 241 240 243 237 244 241 231 232 228 228 227 224 224 226 228 226 230 216
337 340 341 339 336 335 334 332 331 329 324 316 309 301 294 284 276 273 271 267 261 255 253 250 249 243 240 238 242 236 243 243 240 235 233 231 227 227 225 226 229 234 225
336 339 342 339 336 336 335 333 331 328 326 323 317 310 305 298 296 287 279 271 265 264 261 258 254 252 247 243 239 244 234 242 244 241 238 234 230 228 227 225 225 227 224
331 334 337 335 333 334 333 332 331 331 329 327 324 320 313 314 308 297 287 284 278 271 263 259 258 253 253 251 249 242 240 238 242 243 242 238 233 230 228 228 224 224 223
325 328 327 326 325 324 324 323 326 327 330 328 324 321 324 331 331 302 301 290 282 273 268 263 260 257 253 244 245 244 241 242 239 241 244 242 238 233 230 227 226 222 222
325 323 322 321 323 322 323 324 323 325 327 330 329 323 335 326 306 286 276 281 280 273 272 269 263 261 257 253 245 247 243 237 234 240 238 242 241 237 233 228 226 224 223
312 320 324 326 328 326 324 321 320 319 320 329 334 333 334 329 321 315 304 290 279 279 273 266 268 261 263 258 253 246 246 242 236 233 236 237 240 239 234 231 227 225 222
315 320 322 322 324 325 324 324 321 323 319 316 325 337 336 326 320 316 303 298 294 288 280 278 274 274 269 272 266 256 248 245 240 236 229 234 238 241 237 232 230 226 222
313 313 314 315 318 320 318 319 321 320 317 312 311 309 293 286 299 310 302 306 309 301 292 288 286 276 270 269 272 272 265 252 242 244 234 234 234 238 240 237 233 228 225
306 307 309 311 309 304 306 309 310 308 306 302 301 302 298 291 286 282 298 304 301 305 302 298 294 290 281 277 266 266 269 259 256 242 240 234 234 235 238 239 237 233 227
307 308 309 306 301 300 301 300 296 291 290 290 288 283 278 281 285 289 291 297 298 301 303 300 299 297 292 285 276 267 264 262 256 255 248 240 224 227 232 237 237 236 234
308 308 307 304 303 302 300 297 295 293 294 290 285 283 282 282 284 286 288 292 296 297 298 297 300 299 301 296 271 269 277 271 258 257 260 247 237 229 225 232 238 236 236
303 304 303 302 299 297 295 295 294 294 291 288 286 284 285 286 289 287 284 289 295 295 295 292 296 298 300 283 280 278 277 277 274 270 257 249 241 228 232 215 230 237 233
300 300 300 299 295 292 292 294 295 293 290 286 285 286 287 290 287 284 280 277 276 287 288 291 293 294 293 293 280 278 277 276 278 272 265 255 254 235 223 231 221 223 230
299 300 298 295 291 290 292 294 293 291 288 287 289 289 288 288 287 285 282 278 272 272 280 284 286 290 292 292 292 290 284 281 278 278 275 262 258 259 236 225 228 217 224
305 304 299 295 292 292 294 294 293 293 290 290 289 288 287 288 286 285 283 279 273 270 270 281 282 285 287 288 290 294 291 286 282 279 274 273 262 259 255 239 235 222 223
305 306 303 297 294 293 296 296 296 294 293 292 291 289 290 292 290 288 285 281 277 274 267 275 281 284 286 290 294 293 292 290 288 281 278 274 265 265 260 254 249 220 216
306 306 304 300 296 297 299 298 296 293 292 295 296 296 296 296 293 290 286 280 277 274 270 272 275 279 284 287 287 290 294 293 291 284 279 279 271 259 257 263 273 234 231
303 305 304 300 295 297 295 294 293 295 297 299 299 300 302 299 298 297 289 284 278 271 269 270 271 274 277 282 282 287 290 288 291 285 278 282 286 270 258 256 269 264 241
300 301 299 296 294 295 291 295 303 304 301 298 299 303 302 301 304 296 282 277 276 269 267 267 268 271 272 275 275 283 282 293 285 283 291 284 279 261 253 254 258 278 249
303 303 299 302 299 294 290 288 290 294 293 297 298 299 297 296 292 294 277 266 265 266 265 266 268 267 271 270 280 277 279 288 288 291 279 283 282 280 270 251 252 263 257
305 305 305 304 303 301 297 294 295 293 293 297 299 300 300 297 295 296 295 288 270 263 263 269 268 268 272 274 277 275 276 277 278 281 288 280 281 284 284 252 247 256 272
307 312 317 319 315 310 308 299 299 294 296 298 298 302 299 301 302 299 296 293 286 280 267 259 258 266 272 273 270 272 273 276 281 277 277 281 279 283 292 263 241 249 256
314 322 323 322 317 317 315 309 302 299 297 307 311 308 305 304 300 297 297 299 295 277 281 276 271 269 265 265 265 269 268 267 270 271 273 276 279 288 289 273 243 248 251
320 319 323 319 319 320 317 314 306 302 308 309 313 307 309 306 299 296 300 300 299 295 284 272 275 270 267 262 263 259 260 260 261 269 276 262 282 294 291 282 219 242 240